This is the latest recevied weather packets stored in our database for station/object IR1AA-3. If no packets are shown the sender has not sent any weather packets the latest 10 day(s).
| Time | Temp. | Humidity | Pressure | Rain* | Wind** | Luminosity | Snow |
|---|---|---|---|---|---|---|---|
| 1777615435 | 19.44° C | 46% | 1023.5 hPa | - | - | - | - |
| 1777609299 | 16.67° C | 52% | 0 hPa | - | - | - | - |
| 1777607829 | 16.67° C | 53% | 1293.2 hPa | - | - | - | - |
| 1777607620 | 16.11° C | 52% | 1022.6 hPa | - | - | - | - |
| 1777606151 | 16.67° C | 53% | 801.3 hPa | - | - | - | - |
| 1777604350 | 16.67° C | 54% | 0 hPa | - | - | - | - |
| 1777602550 | 16.67° C | 55% | 0 hPa | - | - | - | - |
| 1777601914 | 17.22° C | 54% | 0 hPa | - | - | - | - |
| 1777600114 | 17.22° C | 54% | 1022.3 hPa | - | - | - | - |
| 1777599591 | -4.44° C | 15% | 1022.5 hPa | - | - | - | - |
| 1777597791 | -4.44° C | 16% | 1023.9 hPa | - | - | - | - |
| 1777595991 | -4.44° C | 16% | 1022.3 hPa | - | - | - | - |
| 1777594190 | -4.44° C | 15% | 1022.2 hPa | - | - | - | - |
| 1777592390 | -4.44° C | 15% | 1021.8 hPa | - | - | - | - |
| 1777590590 | -4.44° C | 15% | 1021.6 hPa | - | - | - | - |
| 1777588789 | -4.44° C | 15% | 1021.4 hPa | - | - | - | - |
| 1777586989 | -4.44° C | 16% | 1021.5 hPa | - | - | - | - |
| 1777585189 | 18.33° C | 55% | 1021 hPa | - | - | - | - |
| 1777583389 | 18.33° C | 57% | 1020.8 hPa | - | - | - | - |
| 1777581588 | 18.33° C | 59% | 1020.7 hPa | - | - | - | - |
| 1777579788 | 18.33° C | 58% | 1020.5 hPa | - | - | - | - |
| 1777577987 | 22.78° C | 58% | 0 hPa | - | - | - | - |
| 1777576187 | 147.78° C | 59% | 0 hPa | - | - | - | - |
| 1777574387 | 18.89° C | 55% | 1020.4 hPa | - | - | - | - |
| 1777572586 | 18.89° C | 54% | 1019.7 hPa | - | - | - | - |
* Rain since midnight (hover to see other rain measurements)
** Current wind speed in m/s (hover to see current wind gust speed)